www.pogodaiklimat.ru
Время
и дата
09:18 30.12
09:29 30.12
09:34 30.12
09:45 30.12
09:53 30.12
10:11 30.12
10:27 30.12
10:35 30.12
10:42 30.12
10:53 30.12
11:02 30.12
11:29 30.12
11:41 30.12
11:53 30.12
12:12 30.12
12:49 30.12
12:53 30.12
13:00 30.12
13:11 30.12
13:53 30.12
14:53 30.12
15:53 30.12
16:53 30.12
17:53 30.12
18:53 30.12
19:53 30.12
20:53 30.12
21:53 30.12
22:53 30.12
23:53 30.12
00:53 31.12
01:29 31.12
01:41 31.12
01:53 31.12
02:53 31.12
03:53 31.12
04:53 31.12
05:53 31.12
06:53 31.12
07:53 31.12
08:53 31.12
09:53 31.12
10:53 31.12
11:53 31.12
12:53 31.12
13:53 31.12
14:53 31.12
15:53 31.12
Ветер
(напр.,м/с)
Видим. Явления Облачность Т
(С)
Тd
(С)
f
(%)
Тe
(С)
Тes
(С)
Комфортность P
(гПа)
Po
(гПа)
Тmin
(С)
Tmax
(С)
R
(мм)
R24
(мм)
S
(см)
СЗ 1 3 км слабый снег 10/8 780 м
[Ac]
-17.2 -20.0 79 -23 -23 908.5
СЗ 1 5 км слабый снег 10/10 840 м -17.2 -20.0 79 -23 -23 908.5
нст 1 3 км слабый снег, дымка 10/10 840 м -17.2 -19.4 83 -23 -23 908.9
СВ 1 2 км слабый снег 10/10 810 м -16.7 -19.4 80 -22 -22 909.2
СВ 1 2 км слабый снег 10/10 690 м -17.2 -20.0 79 -24 -24 1006.7 909.5
СВ 1 3 км слабый снег 10/10 660 м -16.7 -20.0 76 -22 -22 909.8
С 1 2 км слабый снег 10/10 720 м -16.7 -20.0 76 -22 -22 910.4
СЗ 2 2 км слабый снег 10/10 930 м -16.1 -19.4 76 -24 -24 910.7
СЗ 2 3 км мгла 10/10 1020 м -16.1 -19.4 76 -24 -24 911.0
СЗ 1 2 км мгла 10/10 960 м -16.1 -19.4 76 -23 -23 1008.6 911.3 -22.2 -16.1 1.0
С 2 2 км мгла 10/10 810 м -16.1 -19.4 76 -24 -24 911.3
СЗ 2 1 км мгла ?/? -17.2 -20.0 79 -27 -27 911.6
СЗ 2 1 км мгла ?/? -17.2 -20.6 75 -27 -27 911.6
СЗ 1 1 км мгла ?/? -17.2 -20.6 75 -24 -24 1009.3 911.9
СЗ 1 2 км мгла ?/? -17.2 -20.6 75 -24 -24 911.9
С 1 3 км мгла 10/10 570 м -17.0 -21.0 71 -22 -22 911.9
СЗ 1 4 км мгла 10/10 570 м -17.2 -20.6 75 -24 -24 1009.4 911.9
СЗ 2 10 км мгла 8/8 570 м -17.8 -21.7 71 -26 -26 911.9
С 1 16 км 5/5 600 м -17.8 -22.2 68 -23 -22 912.2
С 1 16 км 10/5 1800 м
[Ac]
-18.3 -23.3 65 -26 -25 1010.2 912.6
С 2 16 км 2/2 1800 м -18.3 -23.3 65 -27 -26 1010.6 913.2
СЗ 1 16 км 10/0 2100 м
[Ac]
-19.4 -23.9 67 -25 -25 1012.2 914.4
ЮЗ 1 11 км 10/8 1650 м
[Ac]
-20.0 -23.3 75 -26 -26 1012.9 915.3 -20.0 -16.1
ЮЗ 1 16 км 10/2 1500 м
[Ac]
-20.0 -22.8 78 -28 -28 1013.6 915.9
ЮЗ 2 16 км 10/0 2400 м
[Ac]
-19.4 -22.2 78 -28 -28 1013.7 916.2
З 2 13 км 10/0 2400 м
[Ac]
-18.9 -22.2 75 -28 -28 1014.0 916.9
З 2 16 км 10/0 2250 м
[Ac]
-18.9 -22.2 75 -28 -28 1014.1 916.9
З 1 13 км 10/8 960 м
[Ac]
-18.9 -22.8 71 -26 -26 1014.6 917.5
СЗ 2 16 км 10/0 2550 м
[Ac]
-20.0 -23.9 71 -30 -30 1015.6 918.4 -20.6 -18.9
СЗ 1 16 км 10/10 1950 м -21.1 -25.0 71 -29 -29 1016.3 918.7
нст 1 16 км 10/10 1800 м -21.7 -25.6 71 -30 -30 1016.6 919.0
З 1 16 км 8/8 360 м
[Ac]
-22.2 -26.1 70 -28 -28 919.3
СЗ 1 16 км 10/10 360 м -22.8 -26.1 74 -31 -31 опасность
обморожения
919.3
З 1 16 км 8/8 360 м -23.3 -26.7 74 -32 -32 опасность
обморожения
1017.7 919.6
З 2 16 км ясно -23.9 -27.8 70 -34 -34 опасность
обморожения
1018.6 920.3
З 1 16 км 10/0 3000 м
[Ac]
-23.9 -27.2 74 -32 -32 опасность
обморожения
1019.2 920.6
ЮЗ 1 16 км 10/0 2700 м
[Ac]
-23.9 -27.8 70 -32 -32 опасность
обморожения
1019.7 921.2 -24.4 -20.0 1.0
З 1 16 км 10/0 2250 м
[Ac]
-24.4 -27.8 73 -33 -33 опасность
обморожения
1020.4 921.8
ЮЗ 1 16 км 10/0 2400 м
[Ac]
-25.6 -28.3 78 -34 -34 опасность
обморожения
1021.2 922.4
З 1 16 км 10/0 2250 м
[Ac]
-27.2 -30.0 77 -34 -34 опасность
обморожения
1022.2 923.0
З 1 14 км 10/0 2250 м
[Ac]
-26.1 -28.9 77 -35 -35 опасность
обморожения
1023.2 924.3
ЮЗ 1 16 км 5/0 2700 м
[Ac]
-24.4 -28.3 70 -31 -31 опасность
обморожения
1024.0 924.9
З 1 16 км 8/8 1800 м
[Ac]
-23.3 -27.8 66 -32 -31 опасность
обморожения
1024.3 925.2 -27.8 -23.3
СЗ 2 16 км 5/5 960 м -22.8 -27.2 67 -32 -32 опасность
обморожения
1024.1 925.2
З 1 16 км ясно -22.8 -27.2 67 -31 -29 опасность
обморожения
1023.8 924.6
ЮЗ 1 16 км ясно -22.8 -27.2 67 -31 -29 опасность
обморожения
1024.2 924.9
ЮЗ 2 16 км ясно -22.8 -26.7 70 -32 -31 опасность
обморожения
1024.8 925.2
ЮЗ 2 16 км ясно -24.4 -28.3 70 -34 -34 опасность
обморожения
1025.1 925.5
Местоположение метеостанции Havre City-County Airport: широта 48.5428 долгота -109.7633 высота над уровнем моря 789 м.
В архиве по умолчанию представлена погода в Хавре за последние 1-2 суток. Обновление информации о фактической погоде в базе происходит ежечасно! Архивные данные за месяц целиком и за предыдущие месяцы Вы можете получить, выбрав интересующий диапазон дат из раскрывающегося списка и нажав кнопку "Ввод!".
Внимание! Архив погоды МЕТАР в базе сайта по станциям, не включенным в климатический монитор, хранится не более 60 дней. Нет смысла пытаться выбрать более раннюю дату.
*Определитесь, кто Вы:
Внимание! Время в таблицах - местное (без учета летнего времени). Для получения всемирного времени необходимо вычесть поправку, которая равна -7 ч.
Смотрите также архив погоды в соседних городах и на ближайших метеорологических станциях:
Партнеры нашего сайта:      
Пояснения к столбцам:
  • Ветер - указаны скорость ветра в м/с - средняя за 10 мин, порывы в срок и между сроками (в фигурных скобках) и направление, откуда дует ветер: С - северный,
  • СВ - северо-восточный, В - восточный, ЮВ - юго-восточный, Ю - южный, ЮЗ - юго-западный, З - западный, СЗ - северо-западный.
  • Видимость - горизонтальная дальность видимости в метрах или километрах. При видимости от 1 до 10 км при отсутствии осадков обычно наблюдается дымка, при ухудшении видимости до 1 км и менее - туман. В сухую погоду видимость может ухудшаться дымом, пылью или мглою.
  • Явления - указаны атмосферные явления, наблюдавшиеся в срок или в последний час перед сроком; фигурными скобками обозначены явления, наблюдавшиеся между сроками (за 1-3 часа до срока); квадратными скобками обозначены град или гололедные отложения с указанием их диаметра в мм.
  • Облачность - указаны через наклонную черту общая и нижняя облачность в баллах и высота нижней границы облаков в метрах; квадратными скобками обозначены формы облаков: Ci - перистые, Cs - перисто-слоистые, Cc - перисто-кучевые, Ac - высококучевые, As - высокослоистые, Sc - слоисто-кучевые, Ns - слоисто-дождевые, Cu - кучевые, Cb - кучево-дождевые. Подробнее классификацию облаков см. в Атласе облаков (PDF).
  • T - Температура воздуха - температура, измеренная на высоте 2 м над землей.
  • Td - Температура точки росы - температура, при понижении до которой содержащийся в воздухе водяной пар достигнет насыщения.
  • f - Относительная влажность воздуха - влажноcть воздуха, измеренная на высоте 2 м над землей.
  • Te - Эффективная температура - температура, которую ощущает одетый по сезону человек в тени. Характеристика душности погоды. При расчете учитывается влияние влажности воздуха и скорости ветра на теплоощущения человека.
  • Tes - Эффективная температура на солнце - температура, которую ощущает человек, с поправкой на солнечный нагрев. Характеристика знойности погоды. Зависит от высоты солнца над горизонтом, облачности и скорости ветра. Ночью, в пасмурную погоду, а также при ветре 12 м/с и более поправка равна нулю.
  • P - Атмосферное давление - приведенное к уровню моря атмосферное давление.
  • Po - Атмосферное давление - измеренное на уровне метеостанции атмосферное давление.
  • Tmin - Минимальная температура - минимум температуры воздуха на высоте 2 м над землей.
  • Tmax - Максимальная температура - максимум температуры воздуха на высоте 2 м над землей.
  • R - Количество осадков - Количество выпавших осадков за период времени, мм. При наведении курсора мыши на число - период времени, за который выпало указанное количество осадков.
  • R24 - Количество осадков - Количество выпавших осадков за 24 часа, мм.
  • S - Снежный покров - Высота снежного покрова, см. При наведении курсора мыши на число - состояние снежного покрова и степень покрытия местности в баллах.